EW1115 Weather Reports


Display with metric or nautical units.
time (UTC)temp
F
wind
direction
speed
MPH
gust
MPH
rain 1hr
in
rain 24hr
in
rain mn
in
humidity
%
barometer
mb
20200219103127 45 38 3.0 9.0 0.00 0.05 0.00 74 1025.6
20200219101629 45 44 1.0 10.0 0.00 0.05 0.00 74 1025.5
20200219100109 46 67 0.0 4.0 0.00 0.05 0.00 74 1025.7
20200219094615 46 26 2.0 8.0 0.00 0.05 0.00 73 1025.6
20200219093054 46 51 1.0 8.0 0.00 0.05 0.00 73 1025.5
20200219091701 46 17 1.0 9.0 0.00 0.05 0.00 73 1025.4
20200219090114 46 57 2.0 10.0 0.00 0.05 0.00 72 1025.5
20200219084530 47 26 2.0 11.0 0.00 0.05 0.00 72 1025.8
20200219083052 47 63 2.0 8.0 0.00 0.05 0.00 72 1025.8
20200219081546 47 59 1.0 11.0 0.00 0.05 0.00 72 1026.0
20200219080022 47 59 1.0 8.0 0.00 0.05 0.00 72 1025.8
20200219074523 48 63 2.0 5.0 0.00 0.05 0.00 71 1025.8
20200219073023 48 107 1.0 5.0 0.00 0.05 0.00 71 1025.7
20200219071533 48 64 2.0 11.0 0.00 0.05 0.00 70 1025.8
20200219070019 49 39 2.0 8.0 0.00 0.05 0.00 69 1025.6
20200219064509 49 360 2.0 8.0 0.00 0.05 0.00 69 1025.7
20200219063009 50 90 1.0 9.0 0.00 0.05 0.00 68 1025.8
20200219061504 50 46 2.0 11.0 0.00 0.05 0.00 67 1025.9
20200219054714 51 18 1.0 9.0 0.00 0.05 0.01 64 1025.6
20200219053224 51 59 2.0 9.0 0.00 0.05 0.01 64 1025.7
20200219051649 52 355 4.0 9.0 0.00 0.05 0.01 63 1025.7
20200219050214 52 36 4.0 10.0 0.00 0.05 0.01 63 1025.5
20200219044620 52 46 3.0 10.0 0.00 0.05 0.01 62 1025.3
20200219043059 52 63 2.0 6.0 0.00 0.05 0.01 62 1025.2
20200219041814 52 342 1.0 6.0 0.00 0.05 0.01 62 1025.1
20200219040105 52 61 1.0 8.0 0.00 0.05 0.01 62 1024.7
20200219034633 52 57 1.0 8.0 0.00 0.05 0.01 62 1024.7
20200219033058 52 5 1.0 5.0 0.00 0.05 0.01 62 1024.7
20200219031626 52 27 3.0 10.0 0.00 0.05 0.01 62 1024.5
20200219030039 52 42 2.0 9.0 0.00 0.05 0.01 62 1024.0
20200219024546 52 76 2.0 7.0 0.00 0.05 0.01 63 1023.8
20200219023112 52 343 1.0 6.0 0.00 0.05 0.01 63 1023.9
20200219021558 52 10 1.0 4.0 0.01 0.05 0.01 63 1023.3
20200219014634 52 60 2.0 8.0 0.01 0.05 0.01 62 1023.2
20200219013141 52 26 1.0 9.0 0.01 0.05 0.01 61 1022.9
20200219011542 53 355 3.0 12.0 0.00 0.04 0.00 60 1022.5
20200219010117 53 37 3.0 12.0 0.00 0.04 0.00 60 1022.5
20200219004545 53 101 2.0 9.0 0.00 0.04 0.00 60 1022.4
20200219003058 53 33 2.0 9.0 0.00 0.04 0.00 60 1022.2
20200219001607 53 319 2.0 12.0 0.00 0.04 0.00 59 1022.3
20200219000101 53 342 2.0 10.0 0.00 0.04 0.00 60 1021.6
20200218234625 53 11 2.0 6.0 0.00 0.04 0.00 59 1021.7
20200218224747 53 55 0.0 3.0 0.00 0.04 0.04 63 1021.3
20200218223107 53 13 0.0 3.0 0.00 0.04 0.04 63 1020.8
20200218221606 53 55 1.0 5.0 0.00 0.04 0.04 64 1020.2
20200218220158 52 360 1.0 5.0 0.00 0.04 0.04 65 1020.1
20200218214633 52 12 0.0 5.0 0.00 0.04 0.04 67 1020.2
20200218213056 52 338 1.0 6.0 0.00 0.04 0.04 68 1020.1
20200218211740 51 277 1.0 6.0 0.00 0.04 0.04 70 1019.8
20200218210131 51 28 1.0 4.0 0.00 0.04 0.04 72 1020.0
20200218204614 51 283 0.0 3.0 0.00 0.04 0.04 75 1020.5
20200218203059 50 74 1.0 4.0 0.00 0.04 0.04 78 1019.6
20200218201549 50 61 1.0 5.0 0.00 0.04 0.04 79 1019.2
20200218200045 49 69 1.0 8.0 0.01 0.04 0.04 82 1019.4
20200218194601 47 52 1.0 5.0 0.01 0.04 0.04 87 1018.7
20200218193115 46 198 2.0 8.0 0.02 0.04 0.04 87 1019.9
20200218191545 46 31 2.0 7.0 0.02 0.04 0.04 86 1018.8
20200218190115 46 52 1.0 7.0 0.01 0.03 0.03 85 1019.5
20200218184712 47 21 2.0 10.0 0.01 0.03 0.03 82 1019.8
20200218183045 48 52 4.0 10.0 0.00 0.02 0.02 79 1019.8
20200218181525 49 86 4.0 12.0 0.00 0.02 0.02 74 1020.5
20200218180021 50 155 2.0 13.0 0.00 0.02 0.02 72 1019.7
20200218174533 50 42 2.0 12.0 0.00 0.02 0.02 74 1019.5
20200218171610 50 58 2.0 10.0 0.00 0.02 0.02 72 1019.8
20200218170053 51 42 3.0 9.0 0.00 0.02 0.02 73 1019.1
20200218164558 51 63 2.0 10.0 0.00 0.02 0.02 75 1018.8
20200218163054 50 62 4.0 9.0 0.00 0.02 0.02 77 1018.7
20200218161530 50 49 4.0 11.0 0.00 0.02 0.02 81 1018.5
20200218160018 50 34 4.0 11.0 0.00 0.02 0.02 87 1017.9
20200218154528 50 36 4.0 12.0 0.01 0.02 0.02 89 1017.7
20200218153015 51 29 3.0 12.0 0.01 0.02 0.02 90 1017.5
20200218151512 53 54 4.0 11.0 0.01 0.02 0.02 90 1017.0
20200218150206 55 19 4.0 9.0 0.02 0.02 0.02 90 1016.8
20200218144616 55 13 2.0 7.0 0.01 0.01 0.01 90 1016.2
20200218143133 56 23 2.0 6.0 0.01 0.01 0.01 90 1015.9
20200218141654 56 25 2.0 6.0 0.01 0.01 0.01 90 1015.9
20200218140148 56 14 2.0 7.0 0.00 0.00 0.00 89 1015.5
20200218134719 57 66 1.0 5.0 0.00 0.00 0.00 88 1014.9
20200218133119 57 80 1.0 3.0 0.00 0.00 0.00 88 1014.6
20200218131643 57 38 1.0 5.0 0.00 0.00 0.00 87 1014.4
20200218130130 58 16 1.0 7.0 0.00 0.00 0.00 85 1014.0
20200218124609 58 62 2.0 6.0 0.00 0.00 0.00 83 1013.6
20200218123043 58 80 1.0 4.0 0.00 0.00 0.00 81 1013.7
20200218121610 58 64 0.0 2.0 0.00 0.00 0.00 79 1012.9
20200218120053 58 328 0.0 4.0 0.00 0.00 0.00 79 1012.9
20200218114538 58 17 0.0 2.0 0.00 0.00 0.00 78 1012.6
20200218113052 58 35 0.0 2.0 0.00 0.00 0.00 77 1012.4
20200218111540 58 9 0.0 2.0 0.00 0.00 0.00 77 1012.2
20200218110019 58 52 0.0 2.0 0.00 0.00 0.00 76 1011.9
20200218104549 59 27 0.0 5.0 0.00 0.00 0.00 76 1011.8